• Join FlightAware (Why Join?)
  • Login
  • US Flag 
05:57AM EST


 

Airport Tracker/Info


-or-


 

Live Flight TrackerFlight Track Log ✈ SWA1496 ✈ 11-May-2013 ✈ KELP - KDAL

Flight Track Log - Related Links

Times and Time Zones

All times are in EDT time to prevent confusion due to time zone crossing. See the SWA1496 flight status page for this flight to view local times or setup timezone preferences in your user account.

Time Position Orientation Groundspeed Altitude Reporting Facility
EDT Latitude Longitude Course Direction KTS MPH feet Rate Location/Type
07:40PM 31.7967 -106.3367 102° East 149 171 5,700  Level Albuquerque Center
07:41PM 31.7900 -106.2853 99° East 192 221 7,200 2,442 Climbing Albuquerque Center
07:42PM 31.7875 -106.2094 92° East 229 264 10,300 3,344 Climbing Albuquerque Center
07:43PM 31.7894 -106.1247 88° East 256 295 14,000 3,561 Climbing Albuquerque Center
07:44PM 31.7872 -106.0272 92° East 294 338 17,600 3,197 Climbing Albuquerque Center
07:45PM 31.7858 -105.9236 91° East 315 362 20,500 2,727 Climbing Albuquerque Center
07:46PM 31.7864 -105.8117 90° East 340 391 23,100 2,115 Climbing Albuquerque Center
07:47PM 31.8008 -105.6836 82° East 392 451 24,800 2,146 Climbing Albuquerque Center
07:48PM 31.8167 -105.5192 83° East 420 483 27,500 2,244 Climbing Albuquerque Center
07:49PM 31.8319 -105.3761 83° East 441 507 29,400 1,820 Climbing Albuquerque Center
07:50PM 31.8447 -105.2258 84° East 453 521 31,200 2,066 Climbing Albuquerque Center
07:51PM 31.8597 -105.0744 83° East 459 528 33,600 2,066 Climbing Albuquerque Center
07:52PM 31.8728 -104.9261 84° East 459 528 35,400 1,426 Climbing Albuquerque Center
07:53PM 31.8872 -104.7775 83° East 458 527 36,500 1,122 Climbing Albuquerque Center
07:54PM 31.9011 -104.6206 84° East 474 545 37,700 1,122 Climbing Albuquerque Center
07:55PM 31.9150 -104.4619 84° East 484 557 38,800 1,033 Climbing Albuquerque Center
07:56PM 31.9283 -104.3036 84° East 486 559 39,800 1,082 Climbing Albuquerque Center
07:57PM 31.9428 -104.1453 84° East 487 560 41,000 590 Climbing Albuquerque Center
07:58PM 31.9553 -103.9878 85° East 481 554 41,000  Level Albuquerque Center
07:59PM 31.9672 -103.8333 85° East 479 551 41,000  Level Albuquerque Center
08:01PM 31.9822 -103.6794 83° East 476 548 41,000  Level Albuquerque Center
08:02PM 31.9969 -103.4931 85° East 477 549 41,000  Level Albuquerque Center
08:03PM 32.0089 -103.3372 85° East 479 551 41,000  Level Albuquerque Center
08:04PM 32.0214 -103.1808 85° East 480 552 41,000  Level Albuquerque Center
08:04PM 32.0233 -103.1172 88° East 475 547 41,000  Level Fort Worth Center
08:05PM 32.0367 -102.9589 84° East 475 547 41,000  Level Fort Worth Center
08:06PM 32.0497 -102.8028 84° East 475 547 41,000  Level Fort Worth Center
08:07PM 32.0628 -102.6417 84° East 475 547 41,000  Level Fort Worth Center
08:08PM 32.0733 -102.4831 85° East 475 547 41,000  Level Fort Worth Center
08:09PM 32.0861 -102.3219 85° East 480 552 41,000  Level Fort Worth Center
08:10PM 32.0986 -102.1583 85° East 480 552 41,000  Level Fort Worth Center
08:11PM 32.1075 -102.0339 85° East 480 552 41,000  Level Fort Worth Center
08:12PM 32.1186 -101.8381 86° East 485 558 41,000  Level Fort Worth Center
08:13PM 32.1286 -101.6719 86° East 490 564 41,000  Level Fort Worth Center
08:14PM 32.1422 -101.5131 84° East 495 570 41,000  Level Fort Worth Center
08:15PM 32.1517 -101.3517 86° East 495 570 41,000  Level Fort Worth Center
08:16PM 32.1606 -101.1950 86° East 490 564 41,000  Level Fort Worth Center
08:17PM 32.1694 -101.0333 86° East 490 564 41,000  Level Fort Worth Center
08:18PM 32.1753 -100.9058 87° East 490 564 41,000  Level Fort Worth Center
08:19PM 32.1836 -100.7467 86° East 490 564 41,000  Level Fort Worth Center
08:20PM 32.1947 -100.5556 86° East 490 564 41,000  Level Fort Worth Center
08:21PM 32.2028 -100.3964 87° East 490 564 41,000  Level Fort Worth Center
08:22PM 32.2108 -100.2347 87° East 490 564 41,000  Level Fort Worth Center
08:23PM 32.2206 -100.0753 86° East 485 558 41,000  Level Fort Worth Center
08:24PM 32.2303 -99.9111 86° East 490 564 41,000  Level Fort Worth Center
08:25PM 32.2353 -99.7492 88° East 490 564 41,000  Level Fort Worth Center
08:26PM 32.2383 -99.5822 89° East 495 570 41,000  Level Fort Worth Center
08:27PM 32.2431 -99.4200 88° East 495 570 41,000  Level Fort Worth Center
08:28PM 32.2478 -99.2556 88° East 495 570 41,000  Level Fort Worth Center
08:29PM 32.2522 -99.0936 88° East 495 570 41,000 -1,050 Level Fort Worth Center
08:30PM 32.2564 -98.9267 88° East 495 570 38,900 -2,550 Descending Fort Worth Center
08:31PM 32.2603 -98.7597 88° East 495 570 35,900 -3,450 Descending Fort Worth Center
08:32PM 32.2622 -98.5878 89° East 500 575 32,000 -3,650 Descending Fort Worth Center
08:33PM 32.2656 -98.4331 88° East 513 590 28,600 -3,450 Descending Fort Worth Center
08:34PM 32.2689 -98.2511 89° East 513 590 25,100 -3,150 Descending Fort Worth Center
08:35PM 32.2719 -98.1064 89° East 491 565 22,300 -2,950 Descending Fort Worth Center
08:36PM 32.2728 -97.9392 90° East 472 543 19,200 -2,800 Descending Fort Worth Center
08:37PM 32.2753 -97.8114 89° East 443 510 16,700 -2,700 Descending Fort Worth Center
08:38PM 32.2778 -97.6639 89° East 414 476 13,800 -2,150 Descending Fort Worth Center
08:39PM 32.2781 -97.5533 90° East 387 445 12,400 -1,150 Descending Fort Worth Center
08:40PM 32.3136 -97.4528 67° East 323 372 11,500 -950 Descending Fort Worth Center
08:41PM 32.3636 -97.3986 42° Northeast 279 321 10,500 -1,200 Descending Fort Worth Center
08:42PM 32.3761 -97.3028 81° East 259 298 9,100 -1,300 Descending Fort Worth Center
08:43PM 32.3822 -97.2239 85° East 259 298 7,900 -1,300 Descending Fort Worth Center
08:44PM 32.3906 -97.1353 84° East 254 292 6,500 -1,300 Descending Fort Worth Center
08:45PM 32.4008 -97.0592 81° East 254 292 5,300 -1,050 Descending Fort Worth Center
08:46PM 32.4275 -96.9728 70° East 254 292 4,400 -655 Descending Fort Worth Center
08:47PM 32.4608 -96.9136 56° Northeast 246 283 4,000 -202 Descending Fort Worth Center
08:48PM 32.5253 -96.8714 29° Northeast 234 269 4,000 -100 Level Fort Worth Center
08:49PM 32.5836 -96.8464 20° North 234 269 3,800 -550 Descending Fort Worth Center
08:50PM 32.6461 -96.8214 19° North 221 254 2,900 -545 Descending Fort Worth Center
08:51PM 32.6878 -96.8036 20° North 189 217 2,700 -298 Descending Fort Worth Center
08:52PM 32.7333 -96.7833 21° North 165 190 2,300 -348 Descending Dallas / Fort Worth TRACON
08:53PM 32.7833 -96.7833 360° North 139 160 1,900 -435 Descending Dallas / Fort Worth TRACON
08:54PM 32.8167 -96.8167 320° Northwest 151 174 1,300 -600 Descending Dallas / Fort Worth TRACON
08:56PM 32.8333 -96.8500 North  Level FlightAware Approximate
09:03PM 32.8471 -96.8518 North  Level Estimated